Location: Unspecified
(47.5840°N, 122.3000°W)
Time: 22:27:17
(UTC+00:00)

Thor Agena Rocket - Pass Details

Date: 09 December 2025
Orbit: 754 x 802 km, 99.1° (Epoch: 21 January)

Event Time Altitude Azimuth Distance (km) Brightness Sun altitude
Rises 14:27:59 0° 16° (NNE) 3,245 6.7 -12.5°
Reaches altitude 10° 14:30:19 10° 18° (NNE) 2,308 6.0 -12.1°
Maximum altitude 14:35:23 78° 105° (ESE) 780 3.7 -11.3°
Drops below altitude 10° 14:40:24 10° 192° (SSW) 2,275 6.1 -10.5°
Sets 14:42:40 0° 193° (SSW) 3,195 6.8 -10.2°
